[[{"header":{"parameterUnit":"m.s-1","parameterCategory":1,"la1":30.2991,"la2":30.254,"lo1":-89.0895,"lo2":-89.0444,"dy":0.0017,"dx":0.0017,"nx":28,"ny":28,"refTime":"2025-04-30T21:00:00:Z","depth":0,"parameterNumber":2,"parameterNumberName":"U-component_of_WINDS"},"data":[0,0,0,0,0,0,0,0,0,0,0,0,0,0,0,0,0,0,0,0,0,0,0,0,0,0,0,0,0,0,0,0,0,0,0,0,0,0,0,0,0,0,0,0,0,0,0,0,0,0,0,0,0,0,0,0,0,0,-1.8523,-1.8525,0,-1.8785,-1.8788,-1.8791,-1.89,-1.8899,-1.8899,-1.8898,-1.9171,-1.9178,-1.9186,0,0,0,0,0,0,0,0,0,0,0,0,0,-1.8118,-1.8125,-1.8522,-1.8526,-1.8529,-1.8785,-1.8789,-1.8792,-1.89,-1.8899,-1.8899,-1.8898,-1.9168,-1.9177,-1.9187,0,0,0,0,0,0,0,0,0,0,0,0,0,-1.8328,-1.8127,-1.8522,-1.8613,-1.8624,-1.8784,-1.8789,-1.8793,-1.89,-1.8899,-1.8898,-1.8898,-1.9165,-1.9176,-1.9188,-1.9277,0,0,-1.9224,-1.9229,0,0,0,0,0,0,0,0,-1.8316,-1.8343,-1.8597,-1.8607,-1.862,-1.8809,-1.8746,-1.8955,-1.89,-1.8796,-1.8898,-1.8897,-1.9051,-1.9072,-1.9124,-1.929,-1.9302,-1.9225,-1.9232,-1.9237,-1.924,0,0,0,0,0,0,0,-1.8302,-1.8332,-1.8627,-1.86,-1.8614,-1.8643,-1.8672,-1.8786,-1.8925,-1.8805,-1.8813,-1.8843,-1.9057,-1.9112,-1.9131,-1.9306,-1.9224,-1.9235,-1.9242,-1.9247,-1.956,-1.9561,0,0,0,0,0,0,-1.8271,-1.8319,-1.8618,-1.8634,-1.8463,-1.8651,-1.8683,-1.8749,-1.8924,-1.895,-1.8843,-1.8847,-1.9092,-1.9117,-1.9141,-1.9257,-1.9237,-1.9248,-1.9254,-1.9558,-1.956,-1.9561,0,0,0,0,0,0,-1.8262,-1.8297,-1.8608,-1.8479,-1.8521,-1.8659,-1.8732,-1.8755,-1.8809,-1.8953,-1.8979,-1.8873,-1.9093,-1.9124,-1.9242,-1.9268,-1.9253,-1.9264,-1.9557,-1.9559,-1.9561,-1.949,0,0,0,0,0,0,-1.825,-1.8293,-1.8327,-1.8479,-1.8527,-1.8703,-1.8733,-1.8761,-1.8829,-1.8836,-1.8988,-1.9012,-1.9095,-1.9224,-1.9254,-1.9284,-1.9273,-1.9555,-1.9558,-1.956,-1.949,-1.9489,-1.9488,0,0,0,0,0,-1.8235,-1.8297,-1.8328,-1.8364,-1.8573,-1.8705,-1.8732,-1.8825,-1.883,-1.8867,-1.8959,-1.9008,-1.926,-1.9236,-1.927,-1.9304,-1.9554,-1.9557,-1.956,-1.9491,-1.9489,-1.9488,0,0,0,0,0,0,-1.8146,-1.8319,-1.8355,-1.8468,-1.8571,-1.8723,-1.8771,-1.882,-1.8924,-1.8926,-1.9038,-1.9071,-1.918,-1.9254,-1.9223,-1.94,-1.9411,-1.9421,-1.9347,-1.9347,-1.9345,-1.9325,-1.9282,0,0,0,0,0,-1.8139,-1.823,-1.8377,-1.8463,-1.8512,-1.8632,-1.8693,-1.8755,-1.8867,-1.8911,-1.9012,-1.9119,-1.9223,-1.9289,-1.9393,-1.9502,-1.9537,-1.9542,-1.9541,-1.9539,-1.9546,-1.9611,-1.9615,-1.9571,-1.9571,-1.9571,0,0,-1.8126,-1.8232,-1.8283,-1.8447,-1.8534,-1.8627,-1.8668,-1.8765,-1.8836,-1.8926,-1.9044,-1.9121,-1.9249,-1.9363,-1.9418,-1.9428,-1.9566,-1.9543,-1.954,-1.9549,-1.9614,-1.9618,-1.9621,-1.9573,-1.9573,-1.9572,0,0,-1.815,-1.8239,-1.832,-1.8406,-1.8537,-1.8617,-1.8636,-1.8781,-1.8836,-1.8955,-1.9026,-1.9112,-1.9288,-1.9376,-1.9444,-1.9502,-1.955,-1.9533,-1.9526,-1.9587,-1.959,-1.9594,-1.9615,-1.9621,-1.9539,-1.9539,-1.9539,0,-1.8118,-1.826,-1.8356,-1.8449,-1.852,-1.8605,-1.8689,-1.8768,-1.8926,-1.8974,-1.8982,-1.9205,-1.9297,-1.9433,-1.9447,-1.9499,-1.9526,-1.9515,-1.9582,-1.9587,-1.9591,-1.9613,-1.962,-1.9536,-1.9536,-1.9537,-1.9537,0,-1.8214,-1.8312,-1.8362,-1.8511,-1.8588,-1.8675,-1.8786,-1.8852,-1.8908,-1.8987,-1.9108,-1.9221,-1.9349,-1.9386,-1.9442,-1.9531,-1.9533,-1.956,-1.9574,-1.9591,-1.9613,-1.9622,-1.9532,-1.9533,-1.9534,-1.9535,0,0,-1.8189,-1.839,-1.8407,-1.8476,-1.8627,-1.8705,-1.8797,-1.8921,-1.8976,-1.9082,-1.9163,-1.9311,-1.9337,-1.9414,-1.9481,-1.9534,-1.9573,-1.9556,-1.956,-1.9555,-1.9679,-1.9657,-1.9665,-1.9607,-1.9609,-1.961,-1.9668,0,-1.8234,-1.8401,-1.8491,-1.8621,-1.8713,-1.8795,-1.8876,-1.8978,-1.9054,-1.9145,-1.923,-1.9333,-1.936,-1.9407,-1.9463,-1.9556,-1.96,-1.9553,-1.9684,-1.9687,-1.9649,-1.9677,-1.9654,-1.9703,-1.9677,-1.9679,-1.968,0,-1.8308,-1.8412,-1.855,-1.8691,-1.8733,-1.8803,-1.8925,-1.901,-1.9127,-1.918,-1.9265,-1.9331,-1.9433,-1.9439,-1.9582,-1.9548,-1.9607,-1.9661,-1.9665,-1.9681,-1.9684,-1.9693,-1.9721,-1.9728,-1.9695,-1.9693,-1.9692,0,-1.8276,-1.8451,-1.8557,-1.8613,-1.8779,-1.8827,-1.8899,-1.9016,-1.9085,-1.9192,-1.9238,-1.9355,-1.9419,-1.9509,-1.9606,-1.9601,-1.9739,-1.9753,-1.9786,-1.9784,-1.9811,-1.9808,-1.9849,-1.9849,-1.9849,-1.9849,-1.9848,0,-1.8317,-1.8398,-1.8544,-1.8609,-1.8704,-1.8807,-1.8898,-1.8976,-1.9079,-1.9162,-1.9242,-1.9318,-1.944,-1.9533,-1.9609,-1.9716,-1.9744,-1.979,-1.9809,-1.9783,-1.9777,-1.9823,-1.9822,-1.9851,-1.985,-1.985,-1.9849,0,-1.8297,-1.8398,-1.8518,-1.8666,-1.8705,-1.8768,-1.8895,-1.8962,-1.9042,-1.9146,-1.9177,-1.9304,-1.9416,-1.9521,-1.9672,-1.9723,-1.9831,-1.9855,-1.979,-1.9801,-1.9828,-1.9824,-1.99,-1.9915,-1.9903,-1.9903,-1.9903,0,-1.8316,-1.838,-1.8534,-1.8594,-1.8664,-1.8761,-1.8831,-1.8936,-1.9006,-1.9145,-1.9196,-1.9314,-1.9414,-1.959,-1.9696,-1.9812,-1.984,-1.9859,-1.9858,-1.983,-1.9841,-1.9836,-1.9843,-1.9857,-1.9857,-1.9856,-1.9856,0,-1.8339,-1.8386,-1.8484,-1.8599,-1.8681,-1.8778,-1.8877,-1.8922,-1.9046,-1.9121,-1.9236,-1.9313,-1.9467,-1.9583,-1.9711,-1.9787,-1.9842,-1.9855,-1.9869,-1.9843,-1.9803,-1.9825,-1.9785,-1.9853,-1.9854,-1.9854,-1.9854,-1.9854,-1.834,-1.8401,-1.8519,-1.8626,-1.8711,-1.8802,-1.8872,-1.8961,-1.9058,-1.919,-1.9246,-1.9363,-1.9481,-1.9657,-1.9733,-1.9827,-1.9839,-1.9859,-1.9864,-1.9867,-1.9862,-1.9787,-1.985,-1.9851,-1.9851,-1.9851,-1.9851,0,-1.8368,-1.8447,-1.8544,-1.868,-1.8764,-1.8808,-1.892,-1.8988,-1.9089,-1.9193,-1.929,-1.9422,-1.9536,-1.9651,-1.9771,-1.9824,-1.9853,-1.9852,-1.985,-1.9866,-1.9844,-1.982,-1.9827,-1.9827,-1.9827,-1.9827,-1.9827,-1.9827,-1.8392,-1.8498,-1.8559,-1.8709,-1.8789,-1.8902,-1.8963,-1.9047,-1.9131,-1.9275,-1.9369,-1.9443,-1.9552,-1.9681,-1.9788,-1.9819,-1.986,-1.9852,-1.989,-1.9867,-1.9868,-1.9869,-1.9847,-1.986,-1.986,-1.9905,-1.9905,-1.9906]},{"header":{"parameterUnit":"m.s-1","parameterCategory":1,"la1":30.2991,"la2":30.254,"lo1":-89.0895,"lo2":-89.0444,"dy":0.0017,"dx":0.0017,"nx":28,"ny":28,"refTime":"2025-04-30T21:00:00:Z","depth":0,"parameterNumber":3,"parameterNumberName":"V-component_of_WINDS"},"data":[0,0,0,0,0,0,0,0,0,0,0,0,0,0,0,0,0,0,0,0,0,0,0,0,0,0,0,0,0,0,0,0,0,0,0,0,0,0,0,0,0,0,0,0,0,0,0,0,0,0,0,0,0,0,0,0,0,0,5.7867,5.7866,0,5.7806,5.7805,5.7805,5.7707,5.7705,5.7704,5.7702,5.7639,5.7639,5.7639,0,0,0,0,0,0,0,0,0,0,0,0,0,5.7899,5.7899,5.7867,5.7866,5.7865,5.7806,5.7805,5.7804,5.7708,5.7705,5.7703,5.7701,5.7639,5.7639,5.7639,0,0,0,0,0,0,0,0,0,0,0,0,0,5.7866,5.7899,5.7867,5.781,5.7804,5.7806,5.7805,5.7804,5.7708,5.7705,5.7703,5.77,5.7639,5.7639,5.7639,5.7693,0,0,5.7639,5.7639,0,0,0,0,0,0,0,0,5.7868,5.7865,5.7819,5.7814,5.7807,5.7761,5.7794,5.7767,5.7709,5.7744,5.7702,5.7699,5.7682,5.7678,5.7673,5.769,5.7687,5.7639,5.7639,5.7639,5.7639,0,0,0,0,0,0,0,5.7871,5.7867,5.7843,5.7818,5.7811,5.7787,5.778,5.7788,5.7729,5.7741,5.7734,5.7728,5.7678,5.7673,5.7671,5.7686,5.7639,5.7639,5.7639,5.7639,5.7743,5.7745,0,0,0,0,0,0,5.7881,5.787,5.7844,5.7841,5.7832,5.7789,5.778,5.7779,5.7729,5.7718,5.773,5.7724,5.7675,5.7671,5.7668,5.7725,5.7639,5.7639,5.7639,5.774,5.7743,5.7746,0,0,0,0,0,0,5.7883,5.788,5.7847,5.7853,5.7847,5.7791,5.779,5.7779,5.7773,5.7721,5.7709,5.7736,5.7672,5.7668,5.7687,5.7722,5.7639,5.7639,5.7737,5.7741,5.7745,5.7842,0,0,0,0,0,0,5.7884,5.7881,5.79,5.7855,5.7847,5.7867,5.7792,5.778,5.7774,5.7765,5.7723,5.7713,5.767,5.7688,5.7687,5.7721,5.7639,5.7733,5.7739,5.7744,5.7835,5.7849,5.7861,0,0,0,0,0,5.7885,5.793,5.7902,5.7899,5.787,5.7869,5.7865,5.7814,5.7777,5.7796,5.7762,5.7714,5.772,5.769,5.7689,5.7723,5.7731,5.7737,5.7743,5.783,5.7846,5.786,0,0,0,0,0,0,5.7981,5.7923,5.7891,5.7922,5.7901,5.7853,5.7874,5.7834,5.7823,5.7815,5.7753,5.7744,5.7771,5.7749,5.7718,5.7772,5.7718,5.7724,5.7784,5.7799,5.7812,5.7815,5.7639,0,0,0,0,0,5.8006,5.8009,5.7959,5.7991,5.7983,5.7931,5.7929,5.7892,5.7868,5.7858,5.7826,5.7804,5.78,5.7799,5.7793,5.7833,5.7822,5.7856,5.7869,5.7879,5.7884,5.7903,5.7917,5.7767,5.7767,5.7767,0,0,5.8056,5.8025,5.8031,5.801,5.7989,5.7994,5.7924,5.7933,5.7936,5.7859,5.7874,5.7851,5.7823,5.7852,5.7863,5.7835,5.7924,5.7887,5.7896,5.7895,5.7911,5.7925,5.7938,5.7771,5.777,5.777,0,0,5.8151,5.8129,5.8152,5.8134,5.8104,5.807,5.8076,5.8034,5.8015,5.803,5.7973,5.7977,5.7972,5.7954,5.7944,5.8035,5.799,5.8035,5.81,5.8119,5.813,5.814,5.8171,5.8183,5.8041,5.8042,5.8042,0,5.8217,5.8222,5.817,5.8182,5.8174,5.8107,5.813,5.8115,5.8085,5.8081,5.8051,5.8044,5.802,5.8044,5.8066,5.8062,5.8066,5.8038,5.8133,5.8143,5.8151,5.8179,5.8191,5.8047,5.8046,5.8046,5.8045,0,5.8305,5.831,5.8333,5.8306,5.8301,5.8319,5.8269,5.8271,5.8236,5.8205,5.8221,5.8191,5.8178,5.8182,5.8147,5.8201,5.8184,5.8145,5.8088,5.8172,5.8197,5.8208,5.8055,5.8053,5.8051,5.805,0,0,5.8453,5.8399,5.8408,5.8395,5.8359,5.8361,5.8377,5.8364,5.8366,5.8349,5.836,5.8359,5.8322,5.8312,5.8275,5.8292,5.8364,5.825,5.8248,5.827,5.8419,5.8447,5.846,5.8336,5.8338,5.8339,5.8421,0,5.8538,5.856,5.8515,5.8548,5.8552,5.849,5.8504,5.8483,5.8456,5.8455,5.8425,5.8424,5.8377,5.837,5.8385,5.8352,5.8393,5.8346,5.8343,5.8344,5.8349,5.8474,5.8503,5.8581,5.8431,5.8432,5.8434,0,5.8638,5.8626,5.866,5.8623,5.8622,5.8635,5.862,5.8621,5.8597,5.8575,5.8565,5.8523,5.8535,5.8485,5.8501,5.847,5.8467,5.8452,5.8453,5.8448,5.8391,5.8469,5.8605,5.8616,5.8449,5.8448,5.8447,0,5.874,5.8733,5.8752,5.8744,5.8701,5.8711,5.8694,5.8667,5.8662,5.865,5.8646,5.8636,5.8629,5.8622,5.8578,5.8546,5.8599,5.8545,5.8581,5.8582,5.8591,5.8591,5.8725,5.8595,5.8595,5.8595,5.8595,0,5.8837,5.886,5.8797,5.8809,5.8833,5.8781,5.8806,5.8783,5.876,5.8766,5.8713,5.872,5.8663,5.8663,5.863,5.8647,5.8646,5.8628,5.8618,5.8631,5.8633,5.8625,5.8617,5.8598,5.8597,5.8597,5.8596,0,5.8953,5.8913,5.8929,5.8888,5.8878,5.8897,5.8862,5.8871,5.8842,5.885,5.8849,5.8802,5.88,5.8757,5.8746,5.8723,5.8753,5.8735,5.8761,5.8754,5.8791,5.8787,5.8923,5.8938,5.8802,5.8803,5.8804,0,5.9016,5.9032,5.8993,5.8993,5.8978,5.898,5.8975,5.8927,5.8924,5.8899,5.8911,5.8905,5.8897,5.8897,5.8862,5.8853,5.8832,5.8881,5.883,5.8842,5.8829,5.8828,5.8828,5.889,5.8892,5.8893,5.8894,0,5.9131,5.911,5.9106,5.9095,5.9091,5.908,5.9065,5.9069,5.9016,5.9016,5.9013,5.9007,5.8997,5.8991,5.8976,5.8958,5.8917,5.8911,5.8918,5.8929,5.8943,5.8934,5.8787,5.8907,5.8906,5.8905,5.8904,5.8904,5.922,5.9231,5.9205,5.9202,5.9187,5.9175,5.9181,5.9153,5.9151,5.9138,5.911,5.9112,5.9088,5.9065,5.9051,5.9051,5.9026,5.9038,5.904,5.9043,5.9049,5.8946,5.9049,5.9048,5.9048,5.9048,5.9047,0,5.9329,5.9311,5.9309,5.929,5.9288,5.9252,5.9235,5.9235,5.9237,5.922,5.9213,5.9211,5.9206,5.9172,5.9163,5.917,5.9151,5.9169,5.9166,5.9162,5.9073,5.9066,5.9184,5.9184,5.9184,5.9184,5.9184,5.9184,5.9386,5.9402,5.938,5.9388,5.9369,5.9371,5.9364,5.9353,5.9338,5.9338,5.9333,5.9312,5.9287,5.9276,5.927,5.926,5.9258,5.9282,5.9265,5.9182,5.9168,5.9156,5.9149,5.9282,5.9283,5.9354,5.9355,5.9355]}]]